Regional Weather Roundup
Issued by NWS

Home | Current Version | Previous Version | Graphics & Text | Print | Product List | Glossary Off
Versions: 1 2 3 4 5 6 7 8 9 10 11 12 13 14 15 16 17 18 19 20 21 22 23 24 25 26 27 28 29 30 31 32 33 34 35 36 37 38 39 40 41 42 43 44 45 46 47 48 49 50

000
ASUS43 KDMX 280803
RWRIA

WEATHER ROUNDUP FOR IOWA
NATIONAL WEATHER SERVICE DES MOINES IA
300 AM CDT THU APR 28 2016

NOTE: "FAIR" INDICATES FEW OR NO CLOUDS BELOW 12,000 FEET WITH NO
SIGNIFICANT WEATHER AND/OR OBSTRUCTIONS TO VISIBILITY.

* - THESE STATIONS ARE NOT NWS STATIONS...THUS NOT UNDER NWS
QUALITY CONTROL.  THEY ALSO DO NOT REPORT WEATHER SUCH
AS PRECIPITATION OR FOG.

IAZ001>003-012>014-020>022-031>034-043>046-280900-
   NORTHWEST IOWA

CITY           SKY/WX    TMP DP  RH WIND       PRES   REMARKS
CARROLL *      CLOUDY    46  46 100 CALM      29.64R FOG
CHEROKEE *     DRIZZLE   41  41 100 NE12G18   29.70R
DENISON *      CLOUDY    46  46 100 CALM      29.63R
LE MARS *      CLOUDY    43  41  93 NE14      29.72S
ORANGE CITY *  LGT RAIN  41  39  93 E9G17     29.72R
SHELDON *      LGT RAIN  41  41 100 NE18      29.72S
SIOUX CITY     LGT RAIN  44  40  85 NE10      29.69R
SPENCER        LGT RAIN  40  38  93 NE21      29.73S FOG     WCI  30
STORM LAKE *   MIX PCPN  41  41 100 NE21G28   29.67S
$$

IAZ055>058-069>071-079>083-090>094-280900-
   SOUTHWEST IOWA

CITY           SKY/WX    TMP DP  RH WIND       PRES   REMARKS
ATLANTIC *     PTCLDY    45  43  93 CALM      29.65R
AUDUBON *      CLOUDY    46  45  93 S3        29.65R
CLARINDA *       N/A    N/A N/A N/A MISG        N/A
COUNCIL BLFS * CLOUDY    45  45 100 SW5       29.65S
CRESTON *      CLOUDY    46  43  87 SW10      29.66S
HARLAN  *      CLOUDY    43  43 100 SW6       29.68R
LAMONI         CLOUDY    47  41  80 SW10      29.66S
RED OAK *      CLOUDY    46  45  93 SW5       29.66R
SHENANDOAH *   CLOUDY    46  46 100 NW7       29.66R
$$

IAZ047>049-059>061-072>074-084-280900-
   CENTRAL IOWA

CITY           SKY/WX    TMP DP  RH WIND       PRES   REMARKS
AMES           PTCLDY    47  46  97 SE6       29.66S FOG
ANKENY *       CLOUDY    46  45  93 CALM      29.67R
BOONE *        MOCLDY    46  46 100 SE7       29.65R FOG
CHARITON *     CLOUDY    48  48 100 SE3       29.66S
DES MOINES     MOCLDY    47  40  76 S6        29.66R
GRINNELL*      CLOUDY    48  46  93 SE6       29.69S FOG
KNOXVILLE *    CLOUDY    48  46  93 CALM      29.66S
MARSHALLTOWN   CLOUDY    48  46  93 S5        29.69R
NEWTON *       CLOUDY    50  50 100 S7G13     29.68R FOG
PELLA *        MOCLDY    48  48  98 S6        29.69S FOG
$$

IAZ004>006-015-016-023>025-035-036-280900-
   NORTH CENTRAL IOWA

CITY           SKY/WX    TMP DP  RH WIND       PRES   REMARKS
ALGONA *       DRIZZLE   43  43 100 NE13      29.72F
CLARION *      MIX PCPN  43  43 100 E16       29.71R
ESTHERVILLE    LGT RAIN  40  39  97 NE14      29.75S FOG     WCI  32
FORT DODGE *   CLOUDY    45  39  81 NE13      29.68S
MASON CITY     CLOUDY    42  40  92 NE14      29.75S
FOREST CITY *  CLOUDY    41  39  93 E13G23    29.73F
WEBSTER CITY * CLOUDY    45  45 100 E15       29.66F FOG
IOWA FALLS *   DRIZZLE   46  45  93 E10       29.71R
$$

IAZ007>011-017>019-026>030-037>042-050>054-066-280900-
   NORTHEAST IOWA

CITY           SKY/WX    TMP DP  RH WIND       PRES   REMARKS
CEDAR RAPIDS   CLOUDY    47  32  56 E8        29.69R FOG
CHARLES CITY * CLOUDY    43  43 100 E10       29.75R
CLINTON *      MOCLDY    47  45  93 E16       29.70S
DECORAH *      CLOUDY    41  34  75 E15G23    29.74S
DUBUQUE        CLOUDY    44  41  89 E18G30    29.71F
MONTICELLO *   CLOUDY    46  45  93 E13G21    29.69S
OELWEIN *      CLOUDY    43  43 100 E13       29.72R
WATERLOO       CLOUDY    44  41  89 E8        29.72R
$$

IAZ064-065-067-068-078-280900-
   EAST CENTRAL IOWA

CITY           SKY/WX    TMP DP  RH WIND       PRES   REMARKS
DAVENPORT      CLOUDY    48  46  93 E13       29.69S
IOWA CITY      CLOUDY    50  48  93 E5        29.70F FOG
MT. PLEASANT * CLOUDY    52  52 100 S5        29.69S FOG
MUSCATINE *    CLOUDY    50  48  93 CALM      29.70R FOG
QUAD CITIES    MOCLDY    50  47  89 E9        29.68R
$$

IAZ062-063-075>077-085>089-095>099-280900-
   SOUTHEAST IOWA

CITY           SKY/WX    TMP DP  RH WIND       PRES   REMARKS
BURLINGTON     CLOUDY    48  48 100 S5        29.69S FOG
FAIRFIELD *    CLOUDY    48  48 100 S6        29.68S FOG
FORT MADISON * CLEAR     52  50  93 S6        29.70S
KEOKUK *       CLEAR     50  50 100 SE3       29.69S
OSKALOOSA *    CLOUDY    48  48 100 S3        29.68S FOG
OTTUMWA        PTCLDY    48  47  96 S8        29.68S FOG
WASHINGTON *   CLOUDY    48  48 100 S5        29.70R FOG
$$

ABBREVIATIONS USED IN REMARKS
   TC - TEMPERATURES IN CELSIUS
  WCI - WIND CHILL INDEX
   HX - HEAT INDEX
  VSB - VISIBILITY
$$





USA.gov is the U.S. government's official web portal to all federal, state and local government web resources and services.